FIN26V EIDW-EFHK

Flight info

Callsign FIN26V
Flight time N/A
Altitude 35000
Route ROTEV3J ROTEV DCT GOTNA DCT TRN DCT ALOTI DCT VATEX DCT RIRIP Y364 LAKUT
Aircraft A320/M-SDE3FGHIRWY/LB1

Departure

Time N/A
Airport Dublin Airport (EIDW)

Arrival

Time 2026-05-05 20:05
Airport Helsinki Vantaa Airport (EFHK)
Time Latitude Longitude Altitude Speed Heading
2026-05-05 18:48 58.59191 7.13714 34916 ft 502 kts 69°
2026-05-05 18:48 58.60297 7.19976 34908 ft 502 kts 69°
2026-05-05 18:48 58.62523 7.32667 34894 ft 502 kts 69°
2026-05-05 18:49 58.64727 7.45323 34899 ft 502 kts 69°
2026-05-05 18:49 58.66919 7.57991 34909 ft 502 kts 69°
2026-05-05 18:50 58.69111 7.70751 34903 ft 503 kts 70°
2026-05-05 18:50 58.71285 7.83496 34892 ft 503 kts 70°
2026-05-05 18:51 58.73450 7.96261 34877 ft 504 kts 70°
2026-05-05 18:51 58.75603 8.09064 34871 ft 504 kts 70°
2026-05-05 18:52 58.77731 8.21817 34884 ft 504 kts 70°
2026-05-05 18:52 58.79862 8.34672 34896 ft 505 kts 70°
2026-05-05 18:53 58.81974 8.47494 34898 ft 505 kts 70°
2026-05-05 18:53 58.84079 8.60374 34890 ft 505 kts 70°
2026-05-05 18:54 58.86185 8.73339 34879 ft 506 kts 71°
2026-05-05 18:54 58.88262 8.86256 34870 ft 506 kts 71°
2026-05-05 18:55 58.90331 8.99197 34866 ft 507 kts 71°
2026-05-05 18:55 58.92407 9.12280 34865 ft 507 kts 71°
2026-05-05 18:56 58.94445 9.25221 34864 ft 507 kts 71°
2026-05-05 18:56 58.96489 9.38293 34862 ft 507 kts 71°
2026-05-05 18:57 58.98518 9.51380 34855 ft 507 kts 71°
2026-05-05 18:57 59.00531 9.64447 34857 ft 507 kts 71°
2026-05-05 18:58 59.02539 9.77590 34848 ft 508 kts 72°
2026-05-05 18:58 59.04524 9.90699 34844 ft 508 kts 72°
2026-05-05 18:59 59.06502 10.03873 34840 ft 508 kts 72°
2026-05-05 18:59 59.08470 10.17047 34993 ft 509 kts 72°
2026-05-05 19:00 59.09447 10.23628 35159 ft 509 kts 72°
2026-05-05 19:00 59.10415 10.30195 35266 ft 508 kts 72°
2026-05-05 19:00 59.12363 10.43477 35476 ft 509 kts 72°
2026-05-05 19:01 59.13317 10.50003 35588 ft 510 kts 72°
2026-05-05 19:01 59.14283 10.56646 35675 ft 510 kts 72°
2026-05-05 19:01 59.15237 10.63250 35798 ft 510 kts 72°
2026-05-05 19:01 59.16200 10.69930 35920 ft 510 kts 73°
2026-05-05 19:02 59.18109 10.83262 36086 ft 511 kts 73°
2026-05-05 19:02 59.19999 10.96576 36263 ft 512 kts 73°
2026-05-05 19:03 59.21864 11.09813 36459 ft 511 kts 73°
2026-05-05 19:03 59.22801 11.16492 36560 ft 511 kts 73°
2026-05-05 19:03 59.23730 11.23156 36657 ft 510 kts 73°
2026-05-05 19:04 59.25574 11.36475 36837 ft 510 kts 74°
2026-05-05 19:04 59.27406 11.49840 36875 ft 510 kts 73°
2026-05-05 19:05 59.29219 11.63158 36880 ft 510 kts 74°
2026-05-05 19:05 59.31035 11.76629 36862 ft 511 kts 75°
2026-05-05 19:06 59.32828 11.90089 36876 ft 511 kts 75°
2026-05-05 19:06 59.34576 12.03442 36854 ft 511 kts 75°
2026-05-05 19:07 59.36326 12.16962 36878 ft 511 kts 75°
2026-05-05 19:07 59.38055 12.30452 36868 ft 512 kts 75°
2026-05-05 19:08 59.39771 12.43946 36882 ft 512 kts 75°
2026-05-05 19:08 59.41480 12.57515 36875 ft 512 kts 75°
2026-05-05 19:09 59.43177 12.71111 36879 ft 513 kts 76°
2026-05-05 19:09 59.44853 12.84666 36899 ft 512 kts 76°
2026-05-05 19:10 59.46518 12.98252 36895 ft 513 kts 76°
2026-05-05 19:10 59.48167 13.11856 36891 ft 512 kts 76°
2026-05-05 19:11 59.49808 13.25492 36879 ft 513 kts 76°
2026-05-05 19:11 59.51430 13.39139 36878 ft 512 kts 76°
2026-05-05 19:12 59.53044 13.52824 36879 ft 512 kts 76°
2026-05-05 19:12 59.54626 13.66393 36849 ft 512 kts 77°
2026-05-05 19:13 59.56216 13.80134 36846 ft 513 kts 77°
2026-05-05 19:13 59.57780 13.93826 36868 ft 513 kts 77°
2026-05-05 19:14 59.59328 14.07479 36854 ft 513 kts 77°
2026-05-05 19:14 59.60859 14.21150 36850 ft 512 kts 76°
2026-05-05 19:15 59.62389 14.34943 36840 ft 513 kts 77°
2026-05-05 19:15 59.63895 14.48638 36862 ft 512 kts 77°
2026-05-05 19:16 59.65388 14.62386 36851 ft 513 kts 77°
2026-05-05 19:16 59.66840 14.75870 36843 ft 513 kts 77°
2026-05-05 19:17 59.68311 14.89714 36862 ft 513 kts 78°
2026-05-05 19:17 59.69755 15.03431 36824 ft 513 kts 78°
2026-05-05 19:18 59.71188 15.17178 36852 ft 513 kts 78°
2026-05-05 19:18 59.72605 15.30964 36847 ft 513 kts 77°
2026-05-05 19:19 59.74020 15.44864 36858 ft 514 kts 78°
2026-05-05 19:19 59.75411 15.58664 36880 ft 513 kts 77°
2026-05-05 19:20 59.76790 15.72488 36844 ft 514 kts 78°
2026-05-05 19:20 59.78161 15.86414 36871 ft 514 kts 78°
2026-05-05 19:21 59.79503 16.00220 36860 ft 514 kts 78°
2026-05-05 19:21 59.80845 16.14170 36880 ft 514 kts 79°
2026-05-05 19:22 59.82164 16.28050 36846 ft 513 kts 78°
2026-05-05 19:22 59.83463 16.41876 36850 ft 512 kts 79°
2026-05-05 19:23 59.84754 16.55786 36870 ft 512 kts 79°
2026-05-05 19:23 59.86030 16.69696 36875 ft 513 kts 79°
2026-05-05 19:24 59.87291 16.83644 36839 ft 512 kts 79°
2026-05-05 19:24 59.88530 16.97497 36838 ft 511 kts 79°
2026-05-05 19:25 59.89760 17.11395 36874 ft 510 kts 79°
2026-05-05 19:25 59.90972 17.25287 36864 ft 510 kts 79°
2026-05-05 19:26 59.92163 17.39120 36858 ft 510 kts 79°
2026-05-05 19:26 59.93339 17.52970 36862 ft 510 kts 79°
2026-05-05 19:27 59.94505 17.66881 36876 ft 510 kts 81°
2026-05-05 19:27 59.95657 17.80789 36866 ft 510 kts 81°
2026-05-05 19:28 59.96795 17.94714 36852 ft 510 kts 81°
2026-05-05 19:28 59.97913 18.08619 36865 ft 509 kts 81°
2026-05-05 19:29 59.99016 18.22506 36870 ft 509 kts 81°
2026-05-05 19:29 60.00104 18.36392 36862 ft 509 kts 81°
2026-05-05 19:30 60.01182 18.50359 36903 ft 510 kts 81°
2026-05-05 19:30 60.02246 18.64345 36890 ft 510 kts 81°
2026-05-05 19:31 60.03303 18.78354 36877 ft 511 kts 82°
2026-05-05 19:31 60.04334 18.92322 36880 ft 513 kts 82°
2026-05-05 19:32 60.05360 19.06491 36871 ft 513 kts 82°
2026-05-05 19:32 60.06368 19.20517 36867 ft 513 kts 82°
2026-05-05 19:33 60.07362 19.34592 36861 ft 513 kts 82°
2026-05-05 19:33 60.08347 19.48751 36887 ft 512 kts 82°
2026-05-05 19:34 60.09309 19.62840 36862 ft 512 kts 82°
2026-05-05 19:35 60.10732 19.84084 36886 ft 511 kts 83°
2026-05-05 19:35 60.11653 19.98123 36872 ft 511 kts 83°
2026-05-05 19:36 60.12564 20.12225 36871 ft 511 kts 84°
2026-05-05 19:36 60.13462 20.26391 36870 ft 511 kts 83°
2026-05-05 19:37 60.14337 20.40459 36872 ft 511 kts 83°
2026-05-05 19:37 60.15202 20.54589 36877 ft 512 kts 83°
2026-05-05 19:38 60.16054 20.68748 36860 ft 512 kts 84°
2026-05-05 19:38 60.16898 20.83013 36610 ft 512 kts 85°
2026-05-05 19:38 60.17303 20.89973 36263 ft 511 kts 85°
2026-05-05 19:39 60.17711 20.97076 35775 ft 510 kts 85°
2026-05-05 19:39 60.18116 21.04167 35174 ft 512 kts 85°
2026-05-05 19:39 60.18512 21.11177 34646 ft 513 kts 85°
2026-05-05 19:39 60.18910 21.18279 34204 ft 511 kts 86°
2026-05-05 19:40 60.19302 21.25394 33741 ft 510 kts 85°
2026-05-05 19:40 60.19682 21.32413 33238 ft 510 kts 85°
2026-05-05 19:40 60.20067 21.39475 32747 ft 510 kts 84°
2026-05-05 19:40 60.20591 21.46504 32274 ft 510 kts 80°
2026-05-05 19:41 60.21283 21.53449 31733 ft 509 kts 78°
2026-05-05 19:41 60.22025 21.60384 31230 ft 507 kts 78°
2026-05-05 19:41 60.22771 21.67291 30733 ft 504 kts 79°
2026-05-05 19:41 60.23497 21.74088 30261 ft 500 kts 79°
2026-05-05 19:42 60.24219 21.80974 29796 ft 496 kts 79°
2026-05-05 19:42 60.24912 21.87659 29352 ft 491 kts 80°
2026-05-05 19:42 60.25604 21.94364 28912 ft 487 kts 80°
2026-05-05 19:42 60.26274 22.00949 28479 ft 482 kts 79°
2026-05-05 19:43 60.26937 22.07512 28046 ft 478 kts 79°
2026-05-05 19:43 60.27596 22.14052 27604 ft 475 kts 79°
2026-05-05 19:43 60.28245 22.20539 27171 ft 471 kts 80°
2026-05-05 19:43 60.28887 22.26957 26737 ft 467 kts 80°
2026-05-05 19:44 60.29522 22.33359 26311 ft 463 kts 80°
2026-05-05 19:44 60.30139 22.39623 25892 ft 459 kts 80°
2026-05-05 19:44 60.30756 22.45910 25466 ft 456 kts 80°
2026-05-05 19:44 60.31366 22.52188 25048 ft 453 kts 80°
2026-05-05 19:45 60.31963 22.58340 24635 ft 450 kts 80°
2026-05-05 19:45 60.32563 22.64531 24223 ft 448 kts 80°
2026-05-05 19:45 60.33155 22.70650 23814 ft 445 kts 82°
2026-05-05 19:45 60.33750 22.76834 23416 ft 442 kts 82°
2026-05-05 19:46 60.34320 22.82827 23012 ft 440 kts 82°
2026-05-05 19:46 60.34895 22.88945 22603 ft 437 kts 81°
2026-05-05 19:46 60.35455 22.94906 22199 ft 435 kts 81°
2026-05-05 19:46 60.36015 23.00885 21797 ft 432 kts 81°
2026-05-05 19:47 60.36566 23.06787 21399 ft 430 kts 81°
2026-05-05 19:47 60.37114 23.12719 20982 ft 428 kts 81°
2026-05-05 19:47 60.37658 23.18611 20579 ft 426 kts 81°
2026-05-05 19:47 60.38189 23.24412 20187 ft 424 kts 81°
2026-05-05 19:48 60.38724 23.30282 19772 ft 422 kts 81°
2026-05-05 19:48 60.39246 23.36034 19373 ft 419 kts 81°
2026-05-05 19:48 60.39768 23.41831 18972 ft 417 kts 81°
2026-05-05 19:48 60.40278 23.47513 18589 ft 415 kts 81°
2026-05-05 19:49 60.40794 23.53295 18191 ft 414 kts 81°
2026-05-05 19:49 60.41131 23.57096 17928 ft 413 kts 80°
2026-05-05 19:49 60.41799 23.64652 17396 ft 410 kts 80°
2026-05-05 19:49 60.42298 23.70322 16995 ft 407 kts 81°
2026-05-05 19:50 60.42788 23.75905 16612 ft 404 kts 81°
2026-05-05 19:50 60.43267 23.81445 16223 ft 401 kts 81°
2026-05-05 19:50 60.43742 23.86968 15846 ft 397 kts 81°
2026-05-05 19:50 60.44117 23.92514 15437 ft 393 kts 84°
2026-05-05 19:51 60.44431 23.97968 15101 ft 388 kts 84°
2026-05-05 19:51 60.44727 24.03299 14825 ft 381 kts 84°
2026-05-05 19:51 60.45025 24.08603 14525 ft 374 kts 84°
2026-05-05 19:51 60.45317 24.13780 14265 ft 367 kts 84°
2026-05-05 19:52 60.45604 24.18879 13971 ft 361 kts 83°
2026-05-05 19:52 60.45886 24.23900 13637 ft 356 kts 83°
2026-05-05 19:52 60.46126 24.28836 13302 ft 351 kts 85°
2026-05-05 19:52 60.46318 24.33731 12997 ft 346 kts 85°
2026-05-05 19:53 60.46497 24.38568 12671 ft 342 kts 85°
2026-05-05 19:53 60.46675 24.43334 12351 ft 337 kts 85°
2026-05-05 19:53 60.46853 24.48049 12007 ft 332 kts 85°
2026-05-05 19:53 60.47027 24.52619 11694 ft 327 kts 84°
2026-05-05 19:54 60.47203 24.57222 11376 ft 322 kts 84°
2026-05-05 19:54 60.47241 24.61739 11048 ft 318 kts 92°
2026-05-05 19:54 60.46986 24.66109 10727 ft 313 kts 99°
2026-05-05 19:54 60.46604 24.70443 10421 ft 308 kts 101°
2026-05-05 19:55 60.46208 24.74666 10097 ft 304 kts 101°
2026-05-05 19:55 60.45819 24.78852 9725 ft 301 kts 100°
2026-05-05 19:55 60.45581 24.83010 9273 ft 301 kts 83°
2026-05-05 19:55 60.46197 24.86970 8899 ft 293 kts 59°
2026-05-05 19:56 60.47217 24.90454 8647 ft 286 kts 56°
2026-05-05 19:56 60.48257 24.93905 8350 ft 283 kts 57°
2026-05-05 19:56 60.49220 24.97357 8039 ft 281 kts 59°
2026-05-05 19:56 60.50118 25.00840 7406 ft 280 kts 60°
2026-05-05 19:57 60.50983 25.04332 6701 ft 279 kts 61°
2026-05-05 19:57 60.51553 25.06690 6238 ft 277 kts 62°
2026-05-05 19:57 60.52620 25.11338 5290 ft 274 kts 62°
2026-05-05 19:57 60.53403 25.14833 4599 ft 271 kts 62°
2026-05-05 19:58 60.54054 25.18359 3895 ft 273 kts 78°
2026-05-05 19:58 60.53925 25.22183 3274 ft 273 kts 109°
2026-05-05 19:58 60.52914 25.25276 2975 ft 257 kts 139°
2026-05-05 19:58 60.51385 25.26976 2971 ft 249 kts 169°
2026-05-05 19:59 60.49708 25.27281 2978 ft 233 kts 182°
2026-05-05 19:59 60.48152 25.27279 2964 ft 217 kts 184°
2026-05-05 19:59 60.46686 25.27043 2954 ft 206 kts 205°
2026-05-05 19:59 60.45495 25.25581 2985 ft 199 kts 227°
2026-05-05 20:00 60.44562 25.23586 2986 ft 196 kts 236°
2026-05-05 20:00 60.43698 25.21462 2984 ft 196 kts 236°
2026-05-05 20:00 60.42806 25.19346 2977 ft 196 kts 234°
2026-05-05 20:00 60.41898 25.17297 2829 ft 193 kts 233°
2026-05-05 20:01 60.41013 25.15357 2602 ft 187 kts 233°
2026-05-05 20:01 60.40149 25.13473 2328 ft 176 kts 233°
2026-05-05 20:01 60.39354 25.11747 2052 ft 158 kts 234°
2026-05-05 20:01 60.38641 25.10191 1818 ft 142 kts 235°
2026-05-05 20:02 60.38006 25.08796 1605 ft 131 kts 235°
2026-05-05 20:02 60.37392 25.07437 1447 ft 130 kts 234°
2026-05-05 20:02 60.36778 25.06076 1289 ft 130 kts 233°
2026-05-05 20:02 60.36174 25.04750 1121 ft 129 kts 233°
2026-05-05 20:03 60.35561 25.03408 943 ft 129 kts 232°
2026-05-05 20:03 60.34945 25.02095 762 ft 128 kts 232°
2026-05-05 20:03 60.34345 25.00770 574 ft 127 kts 232°
2026-05-05 20:03 60.33752 24.99450 431 ft 127 kts 231°
2026-05-05 20:04 60.33154 24.98118 255 ft 126 kts 231°
2026-05-05 20:04 60.32595 24.96861 189 ft 104 kts 228°
2026-05-05 20:04 60.32217 24.96027 189 ft 66 kts 228°
2026-05-05 20:04 60.31919 24.95401 189 ft 58 kts 211°
2026-05-05 20:05 60.31698 24.95201 189 ft 22 kts 197°
2026-05-05 20:05 60.31605 24.95226 189 ft 13 kts 190°
2026-05-05 20:05 60.31540 24.95103 189 ft 13 kts 229°
2026-05-05 20:05 60.31474 24.94972 189 ft 12 kts 198°
2026-05-05 20:06 60.31402 24.95071 189 ft 13 kts 135°
2026-05-05 20:06 60.31332 24.95205 189 ft 14 kts 137°
2026-05-05 20:06 60.31257 24.95343 189 ft 15 kts 137°
2026-05-05 20:06 60.31184 24.95481 189 ft 14 kts 137°
2026-05-05 20:07 60.31184 24.95646 189 ft 14 kts 47°
2026-05-05 20:07 60.31239 24.95745 189 ft 5 kts 345°
2026-05-05 20:07 60.31274 24.95666 189 ft 8 kts 315°
2026-05-05 20:07 60.31284 24.95647 189 ft 1 kts 317°
2026-05-05 20:08 60.31296 24.95626 189 ft 2 kts 318°
2026-05-05 20:08 60.31298 24.95621 189 ft 0 kts 317°